Weather History for Bellaire, MI

Change the Weather History Date:

Monday, April 22, 2013

  Actual Average (KTVC) Record (KTVC)
Temperature  
Mean Temperature 51 °F 46 °F  
Max Temperature 66 °F 57 °F 88 °F (1980)
Min Temperature 34 °F 34 °F 19 °F (1905)
Degree Days  
Heating Degree Days 14 20  
Month to date heating degree days 521  
Since 1 July heating degree days 6923  
Cooling Degree Days 0 0  
Month to date cooling degree days 0  
Year to date cooling degree days 0  
Growing Degree Days 1 (Base 50)    
Moisture  
Dew Point 29 °F    
Average Humidity 50    
Maximum Humidity 90    
Minimum Humidity 26    
Precipitation  
Precipitation 0.00 in 0.09 in 0.45 in (1937)
Month to date precipitation 2.07  
Year to date precipitation 8.25  
Sea Level Pressure  
Sea Level Pressure 30.24 in    
Wind  
Wind Speed 8 mph (South)    
Max Wind Speed 14 mph    
Max Gust Speed 23 mph    
Visibility 10 miles    
Events      
T = Trace of Precipitation, MM = Missing Value Source: NWS Daily Summary

Daily Weather History Graph

Daily Weather History Graph

Search for Another Location

Airport:

Trip Planner

Search our weather history database for the weather conditions in past years. The results will help you decide how hot, cold, wet, or windy it might be!

Date:

Astronomy

Apr. 22, 2013 Rise Set
Actual Time 6:43 AM EDT 8:35 PM EDT
Civil Twilight 6:12 AM EDT 9:06 PM EDT
Nautical Twilight 5:34 AM EDT 9:45 PM EDT
Astronomical Twilight 4:52 AM EDT 10:27 PM EDT
Moon 5:16 PM EDT (4/22) 4:47 AM EDT (4/22)
Length of Visible Light 14h 54m
Length of Day
13h 51m
Waxing Gibbous, 87% of the Moon is Illuminated
Apr 22
Waxing Gibbous
Apr 25
Full
May 2
Last Quarter
May 9
New
May 18
First Quarter

Hourly Weather History & Observations

Time (EDT) Temp. Windchill Dew Point Humidity Pressure Visibility Wind Dir Wind Speed Gust Speed Precip Events Conditions
12:14 AM 42.1 °F 36.6 °F 27.0 °F 55% 30.35 in 10.0 mi SSE 9.2 mph - N/A   Clear
12:35 AM 41.9 °F 35.9 °F 27.1 °F 56% 30.35 in 10.0 mi SSE 10.4 mph 18.4 mph N/A   Clear
12:54 AM 41.4 °F 35.2 °F 27.5 °F 58% 30.34 in 10.0 mi South 10.4 mph - N/A   Clear
1:14 AM 41.7 °F 36.7 °F 27.9 °F 58% 30.34 in 10.0 mi SSE 8.1 mph 17.3 mph N/A   Clear
1:34 AM 41.5 °F 36.4 °F 28.0 °F 59% 30.33 in 10.0 mi SSE 8.1 mph - N/A   Clear
1:54 AM 41.7 °F 36.1 °F 28.4 °F 59% 30.33 in 10.0 mi SSE 9.2 mph - N/A   Clear
2:15 AM 41.2 °F 33.7 °F 28.2 °F 60% 30.32 in 10.0 mi South 13.8 mph 21.9 mph N/A   Clear
2:34 AM 41.0 °F 35.2 °F 28.2 °F 60% 30.32 in 10.0 mi South 9.2 mph 19.6 mph N/A   Clear
2:54 AM 40.5 °F 34.1 °F 28.0 °F 61% 30.31 in 10.0 mi SSE 10.4 mph 20.7 mph N/A   Clear
3:14 AM 40.3 °F 33.9 °F 27.9 °F 61% 30.31 in 10.0 mi SSE 10.4 mph 20.7 mph N/A   Clear
3:34 AM 40.1 °F 34.1 °F 27.5 °F 61% 30.31 in 10.0 mi South 9.2 mph 19.6 mph N/A   Clear
3:55 AM 39.4 °F 32.3 °F 27.3 °F 62% 30.30 in 10.0 mi South 11.5 mph 17.3 mph N/A   Clear
4:14 AM 39.2 °F 32.0 °F 27.3 °F 62% 30.30 in 10.0 mi South 11.5 mph 19.6 mph N/A   Mostly Cloudy
4:34 AM 39.2 °F 32.0 °F 26.6 °F 61% 30.30 in 10.0 mi SSE 11.5 mph 18.4 mph N/A   Mostly Cloudy
4:55 AM 38.8 °F 34.6 °F 26.2 °F 61% 30.32 in 10.0 mi SSW 5.8 mph 19.6 mph N/A   Mostly Cloudy
5:14 AM 38.7 °F 33.6 °F 26.2 °F 61% 30.31 in 10.0 mi South 6.9 mph - N/A   Mostly Cloudy
5:34 AM 38.3 °F 32.5 °F 26.1 °F 61% 30.31 in 10.0 mi South 8.1 mph - N/A   Scattered Clouds
5:55 AM 38.8 °F 32.6 °F 26.1 °F 60% 30.31 in 10.0 mi South 9.2 mph 16.1 mph N/A   Clear
6:14 AM 39.4 °F 33.2 °F 26.4 °F 60% 30.32 in 10.0 mi South 9.2 mph 18.4 mph N/A   Clear
6:34 AM 39.2 °F 33.6 °F 26.4 °F 60% 30.31 in 10.0 mi South 8.1 mph - N/A   Scattered Clouds
6:55 AM 39.6 °F 34.0 °F 26.4 °F 59% 30.31 in 10.0 mi SSE 8.1 mph - N/A   Mostly Cloudy
7:14 AM 39.9 °F 33.4 °F 26.6 °F 59% 30.29 in 10.0 mi SSE 10.4 mph 21.9 mph N/A   Overcast
7:35 AM 40.5 °F 34.6 °F 26.8 °F 58% 30.31 in 10.0 mi South 9.2 mph - N/A   Overcast
7:55 AM 41.0 °F 38.0 °F 26.8 °F 57% 30.32 in 10.0 mi South 4.6 mph - N/A   Overcast
8:14 AM 41.0 °F 35.8 °F 27.1 °F 58% 30.33 in 10.0 mi South 8.1 mph - N/A   Mostly Cloudy
8:35 AM 41.5 °F 37.1 °F 27.1 °F 57% 30.33 in 10.0 mi South 6.9 mph - N/A   Scattered Clouds
8:55 AM 42.3 °F 37.9 °F 27.5 °F 56% 30.33 in 10.0 mi SSE 6.9 mph - N/A   Scattered Clouds
9:14 AM 43.9 °F 38.3 °F 27.9 °F 53% 30.32 in 10.0 mi South 10.4 mph - N/A   Scattered Clouds
9:35 AM 45.1 °F 39.5 °F 27.9 °F 51% 30.31 in 10.0 mi South 11.5 mph - N/A   Clear
9:54 AM 46.9 °F - 28.0 °F 48% 30.31 in 10.0 mi South 8.1 mph 16.1 mph N/A   Clear
10:14 AM 49.1 °F - 28.4 °F 45% 30.31 in 10.0 mi South 9.2 mph - N/A   Clear
10:35 AM 50.2 °F - 27.9 °F 42% 30.31 in 10.0 mi South 9.2 mph - N/A   Clear
10:54 AM 51.8 °F - 28.4 °F 41% 30.31 in 10.0 mi SSW 8.1 mph - N/A   Mostly Cloudy
11:14 AM 51.8 °F - 28.2 °F 40% 30.30 in 10.0 mi South 9.2 mph - N/A   Overcast
11:35 AM 53.4 °F - 28.6 °F 38% 30.29 in 10.0 mi South 9.2 mph - N/A   Overcast
11:54 AM 54.1 °F - 28.8 °F 38% 30.29 in 10.0 mi South 10.4 mph - N/A   Scattered Clouds
12:15 PM 54.9 °F - 28.8 °F 37% 30.29 in 10.0 mi SSW 5.8 mph - N/A   Clear
12:35 PM 56.7 °F - 29.5 °F 35% 30.28 in 10.0 mi South 8.1 mph - N/A   Clear
12:54 PM 56.7 °F - 28.4 °F 34% 30.27 in 10.0 mi South 4.6 mph - N/A   Clear
1:15 PM 57.7 °F - 28.4 °F 33% 30.26 in 10.0 mi Calm Calm - N/A   Clear
1:35 PM 60.1 °F - 28.8 °F 30% 30.24 in 10.0 mi South 5.8 mph - N/A   Clear
1:54 PM 61.7 °F - 29.8 °F 30% 30.23 in 10.0 mi South 6.9 mph - N/A   Clear
2:15 PM 62.2 °F - 29.5 °F 29% 30.22 in 10.0 mi ESE 6.9 mph - N/A   Clear
2:34 PM 63.1 °F - 29.5 °F 28% 30.21 in 10.0 mi South 4.6 mph 18.4 mph N/A   Clear
2:54 PM 63.1 °F - 29.7 °F 28% 30.21 in 10.0 mi SSE 6.9 mph - N/A   Clear
3:15 PM 64.0 °F - 29.8 °F 28% 30.20 in 10.0 mi SSE 5.8 mph - N/A   Clear
3:34 PM 64.4 °F - 30.2 °F 28% 30.19 in 10.0 mi Calm Calm - N/A   Clear
3:55 PM 65.5 °F - 30.7 °F 27% 30.18 in 10.0 mi South 10.4 mph 21.9 mph N/A   Clear
4:15 PM 65.5 °F - 30.0 °F 26% 30.17 in 10.0 mi South 6.9 mph 23.0 mph N/A   Clear
4:34 PM 66.0 °F - 30.9 °F 27% 30.16 in 10.0 mi SSE 8.1 mph 23.0 mph N/A   Clear
4:55 PM 66.0 °F - 30.9 °F 27% 30.15 in 10.0 mi West 6.9 mph 16.1 mph N/A   Clear
5:14 PM 64.9 °F - 30.7 °F 28% 30.15 in 10.0 mi South 6.9 mph - N/A   Clear
5:35 PM 64.4 °F - 31.3 °F 29% 30.15 in 10.0 mi SSW 5.8 mph - N/A   Clear
5:55 PM 63.7 °F - 31.1 °F 29% 30.14 in 10.0 mi Calm Calm - N/A   Clear
6:14 PM 62.2 °F - 32.0 °F 32% 30.14 in 10.0 mi NW 4.6 mph - N/A   Clear
6:35 PM 59.5 °F - 31.8 °F 35% 30.14 in 10.0 mi NNW 8.1 mph - N/A   Clear
6:55 PM 59.2 °F - 32.0 °F 36% 30.14 in 10.0 mi NW 4.6 mph - N/A   Clear
7:14 PM 57.7 °F - 31.8 °F 37% 30.14 in 10.0 mi NNW 6.9 mph - N/A   Clear
7:35 PM 54.1 °F - 31.5 °F 42% 30.14 in 10.0 mi NNW 9.2 mph - N/A   Clear
7:55 PM 50.9 °F - 31.6 °F 48% 30.14 in 10.0 mi NNW 6.9 mph - N/A   Clear
8:14 PM 49.1 °F - 30.7 °F 49% 30.15 in 10.0 mi North 4.6 mph - N/A   Clear
8:35 PM 46.9 °F - 30.6 °F 53% 30.14 in 10.0 mi NNE 3.5 mph - N/A   Clear
8:55 PM 46.4 °F 45.2 °F 32.9 °F 59% 30.15 in 10.0 mi North 3.5 mph - N/A   Clear
9:15 PM 43.2 °F 41.5 °F 34.9 °F 73% 30.15 in 10.0 mi North 3.5 mph - N/A   Clear
9:35 PM 41.9 °F - 33.6 °F 72% 30.15 in 10.0 mi Calm Calm - N/A   Clear
9:55 PM 40.8 °F 38.8 °F 32.2 °F 71% 30.15 in 10.0 mi North 3.5 mph - N/A   Clear
10:15 PM 41.0 °F - 32.9 °F 73% 30.15 in 10.0 mi Calm Calm - N/A   Clear
10:34 PM 37.6 °F - 32.2 °F 81% 30.14 in 10.0 mi Calm Calm - N/A   Clear
10:55 PM 38.1 °F - 32.7 °F 81% 30.14 in 10.0 mi Calm Calm - N/A   Clear
11:15 PM 36.7 °F - 32.7 °F 86% 30.13 in 10.0 mi Calm Calm - N/A   Clear
11:35 PM 36.1 °F - 32.5 °F 87% 30.12 in 10.0 mi Calm Calm - N/A   Clear
11:54 PM 34.7 °F - 32.0 °F 90% 30.12 in 10.0 mi Calm Calm - N/A   Clear